www.pogodaiklimat.ru

Погода и климат >> Архив погоды >> Мексика >> Queretaro


ПОГОДА в Queretaro

  • Прогноз погоды в Queretaro
  • Монитор погоды в Queretaro
  • Климат города

АРХИВ ПОГОДЫ в Queretaro

Время (UTC), дата Ветер
(напр.,м/с)
 
Видим.   Явления Облачность Т
(С)
Тd
(С)
f
(%)
Тe
(С)
Тes
(С)
Комфортность P
(гПа)
Po
(гПа)
Тmin
(С)
Tmax
(С)
R
(мм)
R24
(мм)
S
(см)
15 11.10 В 2 20 км 4/4 800 м
[Cu med, cong]
+19.7 +16.0 79 +22 +25 комфорт 1010.4 814.7
18 11.10 В 2 20 км 4/4 870 м
[Cu med, cong]
+25.0 +17.5 63 +29 +39 душно 1009.1 814.0 +16.2 +25.2
21 11.10 В 1 20 км 3/3 840 м
[Cu med, cong]
+28.4 +17.7 52 +33 +42 очень
душно
1004.6 811.6
00 12.10 СВ 4 20 км 3/3 840 м
[Cu med, cong]
+25.8 +17.5 60 +30 +30 душно 1002.0 811.1 +28.8
03 12.10 СВ 5 20 км 1/1 840 м
[Cu hum]
+20.4 +16.4 78 +23 +23 комфорт 1003.4 812.8
06 12.10 В 2 10 км 5/1 750 м
[Cu hum Ac trans]
+18.6 +16.0 85 +20 +20 1005.4 813.8 +28.8
09 12.10 В 1 10 км 4/1 750 м
[Cu hum Ac trans]
+18.2 +15.0 82 +20 +20 1006.3 814.1
12 12.10 В 1 5000 м 5/5 800 м
[Cu med, cong]
+16.4 +15.7 96 +17 +17 1009.5 814.2 +16.0 +28.8
15 12.10 В 2 20 км 10/10 800 м
[Cu med, cong]
+19.7 +16.3 81 +23 +23 комфорт 1011.1 814.9
18 12.10 В 1 20 км 4/4 800 м
[Cu med, cong]
+25.0 +17.5 63 +29 +40 душно 1009.1 813.8 +16.0 +25.2
21 12.10 В 2 20 км 5/5 800 м
[Cu Sc]
+28.0 +17.9 54 +32 +38 душно 1004.1 811.2
00 13.10 СВ 3 20 км 3/3 600 м
[Cu med, cong]
+25.6 +17.9 62 +30 +30 душно 1001.7 810.6 +16.0 +28.0
03 13.10 СВ 3 20 км ясно +21.6 +17.1 76 +26 +26 душно 1002.9 812.3
06 13.10 В 1 10 км ясно +19.6 +16.8 84 +23 +23 комфорт 1004.6 813.3 +28.0
09 13.10 В 1 10 км ясно +18.5 +16.6 89 +20 +20 1005.3 812.6
12 13.10 С 1 5000 м 3/3 800 м
[Cu med, cong]
+15.8 +14.9 94 +16 +16 1006.9 812.4 +15.4 +28.0
15 13.10 З 1 20 км 5/5 800 м
[Cu med, cong]
+18.8 +16.5 86 +21 +24 комфорт 1008.2 813.2
18 13.10 С 1 20 км 6/6 800 м
[Cu med, cong]
+24.1 +18.2 70 +29 +36 душно 1007.5 812.6 +15.4 +24.3
00 14.10 ЮЗ 3 20 км 6/6 600 м
[Cu Sc]
+26.4 +17.6 58 +31 +31 душно 1000.7 809.5 +15.4 +28.2
03 14.10 ЮВ 3 20 км ясно +22.2 +16.3 69 +26 +26 душно 1001.6 811.0
06 14.10 Ю 1 10 км 3/3 750 м
[Cu hum]
+19.8 +16.4 81 +23 +23 комфорт 1003.3 812.0 +15.4 +28.2
09 14.10 Ю 1 10 км 1/1 750 м
[Cu hum]
+18.2 +15.9 86 +20 +20 1003.7 811.5
12 14.10 Ю 1 5000 м 10/10 800 м
[Cu med, cong]
+18.2 +16.6 90 +20 +20 1006.7 812.7 +16.8 +28.2
15 14.10 СЗ 1 20 км 9/9 800 м
[Cu med, cong]
+18.7 +16.4 86 +21 +21 комфорт 1008.9 813.7
18 14.10 З 1 20 км 4/4 800 м
[Cu med, cong]
+24.0 +17.2 66 +28 +39 душно 1007.0 812.5 +16.8 +24.2
00 15.10 ЮЗ 3 20 км слабый дождь {морось} 10/6 600 м
[Cb calv As op]
+21.4 +17.5 78 +25 +25 комфорт 1001.3 809.5 0.0
03 15.10 СВ 3 20 км 9/6 840 м
[Cu Sc As op]
+20.2 +16.5 79 +23 +23 комфорт 1003.7 811.8
06 15.10 З 1 10 км 5/3 600 м
[Cu hum Ac cuf]
+18.8 +15.9 83 +21 +21 комфорт 1005.6 812.8 +16.8 +26.2
09 15.10 З 1 10 км 4/1 750 м
[Cu hum Ac trans]
+18.0 +16.0 88 +19 +19 1006.2 812.3
12 15.10 штиль 0 10 км 6/6 750 м
[Sc diur, vesp]
+17.1 +15.7 91 +17 +17 1007.7 812.8 +16.7 +26.2
15 15.10 В 1 20 км 3/1 750 м
[Cu hum Ac trans]
+19.3 +13.7 70 +22 +26 комфорт 1009.4 813.7
21 15.10 СВ 3 18 км 8/5 840 м
[Cu Sc Ac As]
+27.4 +16.2 50 +31 +33 душно 1002.5 810.2
00 16.10 ЮЗ 3 20 км слабый дождь 10/8 600 м
[Cb calv As op]
+18.8 +15.6 82 +20 +20 1002.7 810.7 3
03 16.10 ЮВ 2 20 км 10/8 800 м
[Cb calv As op]
+18.0 +15.1 83 +19 +19 1004.9 812.5 0.4
06 16.10 СВ 1 10 км слабый дождь 10/4 600 м
[Cb calv As op Cc]
+16.6 +15.1 91 +17 +17 1007.2 813.4 5
09 16.10 В 1 10 км 10/4 750 м
[Sc diur, vesp As op Cc]
+16.2 +15.0 93 +17 +17 1009.5 813.6
12 16.10 В 2 5000 м 9/9 750 м
[Sc diur, vesp]
+15.1 +14.4 96 +15 +15 1009.7 813.1 +14.8 +28.2
15 16.10 В 2 20 км 4/4 800 м
[Cu med, cong]
+16.8 +14.6 87 +17 +20 1011.1 813.0
18 16.10 В 2 20 км 4/4 800 м
[Cu med, cong]
+24.5 +16.3 60 +28 +37 душно 1009.0 813.0 +14.8 +24.7
21 16.10 В 3 20 км 4/3 840 м
[Cu med, cong Ac As]
+27.2 +16.5 52 +31 +36 душно 1004.2 810.6
00 17.10 СВ 4 20 км 5/5 600 м
[Cu Sc]
+23.8 +15.9 61 +27 +27 жарко 1001.7 810.0 +14.8 +27.4
03 17.10 СВ 4 20 км 9/6 840 м
[Cu Sc Ac As]
+18.6 +14.5 77 +19 +19 1004.6 812.9
06 17.10 В 1 10 км слабая морось 9/5 600 м
[Sc diur, vesp Ac cuf]
+17.4 +15.4 88 +18 +18 1008.4 815.3 0.0
09 17.10 В 1 10 км 8/4 750 м
[Sc Ac cuf]
+16.8 +15.3 91 +18 +18 1008.9 814.4
12 17.10 В 1 10 км {морось} 5/5 600 м
[Sc diur, vesp]
+15.0 +12.9 87 +15 +15 1010.8 814.5 0.0
15 17.10 СВ 3 20 км 9/5 750 м
[Sc diur, vesp Ac und]
+16.1 +13.4 84 +16 +16 1014.1 816.4
18 17.10 В 2 20 км 8/5 800 м
[Cu Sc]
+22.4 +13.9 59 +26 +31 жарко 1011.9 814.9 +14.4 +22.6
21 17.10 СВ 6 20 км 9/6 840 м
[Cu Sc Ac As]
+22.0 +14.9 64 +25 +26 комфорт 1009.3 813.6
00 18.10 СВ 5 20 км 4/4 600 м
[Sc]
+20.0 +14.1 69 +22 +22 комфорт 1007.5 813.0 +14.6 +22.2
03 18.10 СВ 4 20 км 9/6 800 м
[Cu Sc Ac As]
+16.4 +13.1 81 +16 +16 1009.7 815.1
06 18.10 В 1 10 км 8/5 750 м
[Sc diur, vesp Ac trans]
+15.8 +13.4 86 +16 +16 1011.7 816.1 +22.6
09 18.10 В 2 10 км 6/4 750 м
[Sc Ac trans]
+15.4 +13.6 89 +15 +15 1012.9 816.1

 

Местоположение метеостанции Queretaro (Мексика): широта 20.58 долгота -100.40 высота над уровнем моря 1880 м.

В архиве по умолчанию представлена погода в Queretaro за последнюю неделю. Архивные данные за месяц целиком и за предыдущие месяцы, начиная с января 2011 года, Вы можете получить, выбрав интересующий диапазон дат из раскрывающегося списка и нажав кнопку "Ввод!".


*Определитесь, кто Вы:
робот инопланетянин человек

Внимание! Время в таблицах - всемирное. Для получения местного времени необходимо прибавить поправку, которая в Queretaro равна -6 ч.

Смотрите также архив погоды в соседних городах и на ближайших метеорологических станциях:

Погода в Guanajuato (Мексика) (95 км)
Погода в Morelia (Мексика) (122 км)
Погода в Rio Verde (Мексика) (156 км)
Погода в Toluca (Мексика) (163 км)
Погода в Pachuca (Мексика) (179 км)
Погода в Lagos De Moreno (Мексика) (180 км)
Погода в Mexico City (Мексика) (183 км)
Погода в Matlapa (Мексика) (185 км)
Погода в San Luis Potosi (Мексика) (185 км)
Погода в Institute of Geography (Мексика) (189 км)

Пояснения к столбцам:

Ветер - указаны скорость ветра в м/с - средняя за 10 мин, порывы в срок и между сроками (в фигурных скобках) и направление, откуда дует ветер: С - северный, СВ - северо-восточный, В - восточный, ЮВ - юго-восточный, Ю - южный, ЮЗ - юго-западный, З - западный, СЗ - северо-западный.
Видимость - горизонтальная дальность видимости в метрах или километрах. При видимости от 1 до 10 км при отсутствии осадков обычно наблюдается дымка, при ухудшении видимости до 1 км и менее - туман. В сухую погоду видимость может ухудшаться дымом, пылью или мглою.
Явления - указаны атмосферные явления, наблюдавшиеся в срок или в последний час перед сроком; фигурными скобками обозначены явления, наблюдавшиеся между сроками (за 1-3 часа до срока); квадратными скобками обозначены град или гололедные отложения с указанием их диаметра в мм.
Облачность - указаны через наклонную черту общая и нижняя облачность в баллах и высота нижней границы облаков в метрах; квадратными скобками обозначены формы облаков: Ci - перистые, Cs - перисто-слоистые, Cc - перисто-кучевые, Ac - высококучевые, As - высокослоистые, Sc - слоисто-кучевые, Ns - слоисто-дождевые, Cu - кучевые, Cb - кучево-дождевые. Подробнее классификацию облаков см. в Атласе облаков (PDF).
T - Температура воздуха - температура, измеренная на высоте 2 м над землей.
Td - Температура точки росы - температура, при понижении до которой содержащийся в воздухе водяной пар достигнет насыщения.
f - Относительная влажность воздуха - влажноcть воздуха, измеренная на высоте 2 м над землей.
Te - Эффективная температура - температура, которую ощущает одетый по сезону человек в тени. Характеристика душности погоды. При расчете учитывается влияние влажности воздуха и скорости ветра на теплоощущения человека.
Tes - Эффективная температура на солнце - температура, которую ощущает человек, с поправкой на солнечный нагрев. Характеристика знойности погоды. Зависит от высоты солнца над горизонтом, облачности и скорости ветра. Ночью, в пасмурную погоду, а также при ветре 12 м/с и более поправка равна нулю.
P - Атмосферное давление - приведенное к уровню моря атмосферное давление.
Po - Атмосферное давление - измеренное на уровне метеостанции атмосферное давление.
Tmin - Минимальная температура - минимум температуры воздуха на высоте 2 м над землей.
Tmax - Максимальная температура - максимум температуры воздуха на высоте 2 м над землей.
R - Количество осадков - Количество выпавших осадков за период времени, мм. При наведении курсора мыши на число - период времени, за который выпало указанное количество осадков.
R24 - Количество осадков - Количество выпавших осадков за 24 часа, мм.
S - Снежный покров - Высота снежного покрова, см. При наведении курсора мыши на число - состояние снежного покрова и степень покрытия местности в баллах.